STARLINK-1458, 45675

Orbit data source: Space-Track

STARLINK-1458, 45675 is a payload satellite owned by SpaceX/Seattle (US) in LEO that was launched on Thu, 04 Jun 2020 UTC via an FALCON 9 launch vehicle from the Air Force Eastern Test Range (AFETR). Payload-class satellites include a variety of spacecraft equipped with specific instruments for various scientific and technological missions. These include communications satellites like Starlink; space stations such as the ISS; scientific satellites like the Hubble; Earth observation satellites from companies like Planet Labs, Umbra, and HawkEye 360; GPS; miniature CubeSats for education and research; and military/defense satellites.

Loading next visibility...
Identifier
45675, 2020-035U
Orbit
LEO
Country
Flag of USUS
Related business
Manufacturer
SpaceX/Seattle
Mission
Operational Commercial Communications
Bus & Motor
STARLINK, Unknown motor
Mass
260 kg wet, ~248 kg dry
Launch date (UTC)
2020-06-04 (5 years ago)
Launch vehicle
FALCON 9
Launch site
Air Force Eastern Test Range (AFETR)
Object type
Payload
Rocket body
Debris
Shape & HBR
Box + 1 Pan, 4.4 m
Radar Cross Section
13.562 m², Large (>1 m²)

Expand to show TLE details & history
Last TLE update: 8 hours ago

TLE from 8 hours ago
0 STARLINK-1458
1 45675U 20035U   25260.83071537  .00000523  00000-0  54029-4 0  9990
2 45675  53.0536 122.6122 0001507  92.9957 267.1204 15.06399264292641
Epoch: 2025-09-17T19:56Z
TLE epoch observation values (Epoch: 2025-09-17T19:56:13.807Z)
Latitude
-0.00008°
Longitude
-173.44642°
Altitude
548.145 km
Speed
7.589 km/s
True Right ascension
08h 10m 26s
True Declination
0° 00' 00"
Sunlit
Object was in daylight at epoch
Visualization orbit readout
Latitude
Unknown
Longitude
Unknown
Altitude
Unknown
Speed
Unknown
Apparent Right ascension
Unknown
Apparent Declination
Unknown
Sunlit
N/A
Visualization observer readout
Local Sidereal Time
21:09:08
Azimuth
Unknown
Elevation
Unknown
Doppler factor
Unknown
Orbital elements
Apogee altitude
548.528 km
Perigee altitude
546.441 km
Semi-major axis
6,925.622 km
Eccentricity
0.00015
Inclination
53.0536°
RAAN
122.6122°
Arg. of periapsis
92.9957°
True anomaly
267.10315°
Mean anomaly
267.1204°
Eccentric anomaly
267.11178°
Mean motion
3.76578 °/min
Orbital period
95.6 mins
BSTAR
0.000054029
Loading maneuver chart data...
Computing Atmospheric mass density...

Documentation

Showing up to 5 results
|